QPF
0.00 0.00 0.00 0.00 0.00 0.00 0.00 0.00 0.00 0.00 0.00 0.00 0.00 0.00 0.00 0.00 0.00 0.00 0.00 0.00 0.00 0.00 0.00 0.00 0.00 0.00 0.00 0.00 0.00 0.00 0.00 0.00 0.00 0.00 0.00 0.00 0.00 0.00 0.00 0.00 0.00 0.00 0.00
0.00 0.00 0.00 0.00 0.01 0.00 0.00 0.00 0.00 0.00 0.00 0.00 0.00 0.00 0.00 0.00 0.00 0.00 0.00 0.00 0.00 0.00 0.00 0.00 0.00 0.00 0.00 0.00 0.00 0.00 0.00 0.00 0.00 0.00 0.00 0.00 0.00 0.00 0.00 0.00 0.00 0.00 0.00
0.00 0.00 0.00 0.00 0.01 0.01 0.00 0.00 0.00 0.00 0.00 0.00 0.00 0.00 0.00 0.00 0.00 0.00 0.00 0.00 0.00 0.00 0.00 0.00 0.00 0.00 0.00 0.00 0.00 0.00 0.00 0.00 0.00 0.00 0.00 0.00 0.00 0.00 0.00 0.00 0.00 0.00 0.00
0.00 0.00 0.00 0.00 0.00 0.00 0.00 0.00 0.00 0.00 0.00 0.00 0.00 0.00 0.00 0.00 0.00 0.00 0.00 0.00 0.00 0.00 0.00 0.00 0.00 0.00 0.00 0.00 0.00 0.00 0.00 0.00 0.00 0.00 0.00 0.00 0.00 0.00 0.00 0.00 0.00 0.00 0.00
0.00 0.00 0.00 0.00 0.00 0.01 0.00 0.00 0.00 0.00 0.00 0.00 0.00 0.00 0.00 0.00 0.00 0.00 0.00 0.00 0.00 0.00 0.00 0.00 0.00 0.00 0.00 0.00 0.00 0.00 0.00 0.00 0.00 0.00 0.00 0.00 0.00 0.00 0.00 0.00 0.00 0.00 0.00
0.01 0.01 0.01 0.01 0.01 0.01 0.01 0.00 0.00 0.00 0.00 0.00 0.00 0.00 0.00 0.00 0.00 0.00 0.00 0.00 0.00 0.00 0.00 0.00 0.00 0.00 0.00 0.00 0.00 0.00 0.00 0.00 0.00 0.00 0.00 0.00 0.00 0.00 0.00 0.00 0.00 0.00 0.00
0.01 0.01 0.01 0.01 0.01 0.01 0.01 0.00 0.00 0.00 0.00 0.00 0.00 0.00 0.00 0.00 0.00 0.00 0.00 0.00 0.00 0.00 0.00 0.00 0.00 0.00 0.00 0.00 0.00 0.00 0.00 0.00 0.00 0.00 0.00 0.00 0.00 0.00 0.01 0.00 0.00 0.01 0.00
0.01 0.01 0.01 0.01 0.01 0.01 0.01 0.01 0.00 0.00 0.00 0.00 0.00 0.00 0.00 0.00 0.00 0.00 0.00 0.00 0.00 0.00 0.00 0.00 0.00 0.00 0.00 0.00 0.00 0.00 0.00 0.00 0.00 0.00 0.00 0.00 0.00 0.00 0.01 0.01 0.01 0.01 0.00
0.01 0.01 0.02 0.02 0.02 0.02 0.01 0.01 0.01 0.01 0.01 0.01 0.01 0.00 0.00 0.00 0.01 0.01 0.01 0.00 0.00 0.00 0.00 0.00 0.01 0.01 0.01 0.01 0.00 0.00 0.00 0.00 0.00 0.00 0.00 0.00 0.00 0.00 0.00 0.00 0.01 0.01 0.00
0.01 0.01 0.01 0.02 0.02 0.02 0.02 0.01 0.01 0.01 0.01 0.01 0.01 0.01 0.01 0.01 0.01 0.01 0.01 0.01 0.01 0.00 0.01 0.01 0.01 0.00 0.01 0.01 0.01 0.01 0.00 0.01 0.01 0.01 0.00 0.00 0.00 0.00 0.00 0.00 0.00 0.01 0.01
0.01 0.02 0.02 0.02 0.02 0.02 0.01 0.01 0.01 0.01 0.01 0.01 0.01 0.01 0.01 0.01 0.01 0.02 0.02 0.01 0.01 0.01 0.01 0.01 0.01 0.01 0.01 0.01 0.01 0.01 0.01 0.01 0.02 0.02 0.02 0.01 0.01 0.00 0.00 0.00 0.00 0.00 0.01
0.01 0.01 0.01 0.01 0.01 0.01 0.01 0.01 0.02 0.01 0.01 0.01 0.01 0.01 0.01 0.01 0.01 0.01 0.01 0.01 0.01 0.01 0.00 0.00 0.01 0.01 0.01 0.01 0.01 0.01 0.01 0.01 0.01 0.02 0.02 0.02 0.01 0.01 0.00 0.00 0.01 0.01 0.01
0.01 0.01 0.01 0.00 0.01 0.01 0.01 0.01 0.01 0.01 0.00 0.00 0.00 0.00 0.01 0.01 0.01 0.02 0.02 0.02 0.02 0.01 0.01 0.01 0.01 0.01 0.02 0.02 0.01 0.02 0.02 0.02 0.02 0.02 0.02 0.02 0.01 0.01 0.01 0.02 0.01 0.01 0.01
0.00 0.00 0.00 0.00 0.00 0.01 0.00 0.00 0.00 0.00 0.00 0.00 0.00 0.01 0.01 0.01 0.02 0.02 0.02 0.02 0.02 0.02 0.01 0.01 0.01 0.01 0.01 0.01 0.01 0.01 0.01 0.01 0.02 0.02 0.02 0.02 0.02 0.02 0.02 0.01 0.01 0.01 0.01
0.00 0.00 0.00 0.00 0.00 0.00 0.00 0.00 0.00 0.00 0.00 0.00 0.00 0.00 0.00 0.00 0.00 0.01 0.00 0.01 0.01 0.01 0.01 0.01 0.02 0.02 0.03 0.03 0.04 0.04 0.04 0.03 0.03 0.02 0.03 0.03 0.03 0.03 0.02 0.02 0.02 0.01 0.01
0.00 0.00 0.00 0.00 0.00 0.00 0.00 0.00 0.00 0.00 0.00 0.00 0.00 0.00 0.00 0.00 0.00 0.00 0.00 0.00 0.00 0.00 0.01 0.01 0.01 0.01 0.02 0.02 0.03 0.04 0.05 0.05 0.04 0.04 0.04 0.04 0.04 0.04 0.04 0.04 0.03 0.02 0.02
0.00 0.00 0.00 0.00 0.00 0.00 0.00 0.00 0.00 0.00 0.00 0.00 0.00 0.00 0.00 0.00 0.00 0.00 0.00 0.00 0.00 0.00 0.00 0.01 0.01 0.02 0.02 0.03 0.04 0.04 0.05 0.05 0.06 0.06 0.06 0.06 0.05 0.05 0.05 0.05 0.04 0.04 0.03
0.00 0.00 0.00 0.00 0.00 0.00 0.00 0.00 0.00 0.00 0.00 0.00 0.00 0.00 0.00 0.00 0.00 0.00 0.00 0.00 0.00 0.00 0.01 0.01 0.02 0.02 0.03 0.04 0.05 0.05 0.06 0.07 0.07 0.07 0.07 0.06 0.07 0.06 0.06 0.05 0.05 0.04 0.04
0.00 0.00 0.00 0.00 0.00 0.00 0.00 0.00 0.00 0.00 0.00 0.00 0.00 0.00 0.00 0.00 0.00 0.00 0.00 0.00 0.01 0.01 0.01 0.02 0.03 0.04 0.04 0.05 0.06 0.07 0.07 0.08 0.08 0.08 0.07 0.07 0.06 0.05 0.05 0.05 0.05 0.05 0.04
0.00 0.00 0.00 0.00 0.00 0.00 0.00 0.00 0.00 0.00 0.00 0.00 0.00 0.00 0.00 0.00 0.00 0.00 0.01 0.01 0.02 0.02 0.03 0.03 0.04 0.05 0.06 0.07 0.08 0.09 0.10 0.09 0.09 0.09 0.09 0.09 0.08 0.07 0.06 0.06 0.06 0.06 0.05
0.00 0.00 0.00 0.00 0.00 0.00 0.00 0.00 0.01 0.01 0.01 0.01 0.01 0.01 0.00 0.01 0.01 0.01 0.02 0.02 0.03 0.03 0.04 0.06 0.07 0.08 0.09 0.09 0.10 0.11 0.11 0.11 0.11 0.11 0.11 0.11 0.11 0.10 0.08 0.08 0.07 0.07 0.07
0.00 0.00 0.00 0.00 0.00 0.00 0.00 0.01 0.01 0.01 0.01 0.01 0.01 0.01 0.01 0.01 0.02 0.02 0.03 0.04 0.05 0.05 0.06 0.08 0.11 0.13 0.14 0.15 0.16 0.16 0.15 0.15 0.15 0.15 0.14 0.13 0.13 0.11 0.10 0.09 0.08 0.07 0.07
0.00 0.00 0.00 0.00 0.00 0.00 0.00 0.00 0.00 0.00 0.01 0.01 0.01 0.01 0.02 0.03 0.03 0.04 0.05 0.06 0.06 0.07 0.08 0.11 0.13 0.15 0.16 0.18 0.18 0.17 0.16 0.16 0.15 0.15 0.13 0.11 0.11 0.10 0.09 0.08 0.08 0.07 0.07
0.00 0.00 0.00 0.00 0.00 0.00 0.00 0.01 0.01 0.01 0.01 0.01 0.02 0.02 0.03 0.03 0.03 0.05 0.06 0.07 0.07 0.09 0.12 0.15 0.16 0.15 0.14 0.14 0.13 0.13 0.13 0.12 0.11 0.10 0.09 0.09 0.09 0.09 0.09 0.09 0.08 0.07 0.06
0.00 0.00 0.00 0.00 0.00 0.01 0.01 0.01 0.01 0.02 0.02 0.02 0.02 0.02 0.03 0.03 0.03 0.04 0.06 0.08 0.09 0.12 0.13 0.13 0.13 0.14 0.15 0.14 0.11 0.09 0.10 0.09 0.07 0.06 0.06 0.06 0.07 0.08 0.08 0.07 0.07 0.06 0.06
0.00 0.00 0.00 0.00 0.01 0.01 0.01 0.02 0.02 0.02 0.02 0.02 0.02 0.03 0.03 0.03 0.04 0.07 0.08 0.10 0.11 0.10 0.09 0.10 0.11 0.13 0.14 0.13 0.10 0.08 0.06 0.05 0.04 0.03 0.02 0.03 0.04 0.06 0.07 0.08 0.06 0.06 0.06
MSLP
1014.36 1014.74 1015.10 1015.43 1015.72 1015.97 1016.18 1016.38 1016.59 1016.81 1017.07 1017.35 1017.67 1017.99 1018.30 1018.58 1018.83 1019.02 1019.16 1019.26 1019.32 1019.36 1019.39 1019.41 1019.42 1019.43 1019.41 1019.37 1019.31 1019.21 1019.08 1018.93 1018.76 1018.58 1018.40 1018.23 1018.06 1017.90 1017.76 1017.64 1017.53 1017.44 1017.38
1013.61 1013.99 1014.35 1014.68 1014.99 1015.27 1015.53 1015.77 1016.03 1016.30 1016.59 1016.90 1017.22 1017.54 1017.84 1018.12 1018.35 1018.53 1018.68 1018.78 1018.86 1018.92 1018.97 1019.01 1019.05 1019.07 1019.08 1019.06 1019.01 1018.92 1018.81 1018.67 1018.50 1018.32 1018.13 1017.94 1017.75 1017.56 1017.39 1017.22 1017.07 1016.94 1016.84
1012.83 1013.20 1013.56 1013.91 1014.24 1014.55 1014.85 1015.15 1015.45 1015.76 1016.08 1016.41 1016.74 1017.05 1017.35 1017.61 1017.83 1018.01 1018.15 1018.26 1018.36 1018.44 1018.51 1018.57 1018.63 1018.67 1018.70 1018.70 1018.67 1018.60 1018.50 1018.38 1018.23 1018.05 1017.86 1017.66 1017.46 1017.24 1017.03 1016.83 1016.63 1016.45 1016.30
1012.06 1012.44 1012.80 1013.16 1013.51 1013.85 1014.18 1014.52 1014.86 1015.20 1015.54 1015.88 1016.21 1016.52 1016.80 1017.04 1017.25 1017.43 1017.57 1017.70 1017.80 1017.90 1017.99 1018.08 1018.15 1018.22 1018.26 1018.28 1018.26 1018.22 1018.15 1018.04 1017.91 1017.76 1017.59 1017.39 1017.18 1016.96 1016.73 1016.49 1016.25 1016.02 1015.80
1011.41 1011.77 1012.13 1012.49 1012.85 1013.20 1013.56 1013.91 1014.27 1014.62 1014.97 1015.31 1015.63 1015.93 1016.19 1016.43 1016.63 1016.80 1016.95 1017.08 1017.20 1017.31 1017.42 1017.52 1017.60 1017.68 1017.73 1017.77 1017.77 1017.75 1017.71 1017.64 1017.54 1017.42 1017.28 1017.11 1016.91 1016.70 1016.46 1016.20 1015.92 1015.64 1015.37
1010.94 1011.28 1011.63 1011.98 1012.32 1012.67 1013.02 1013.37 1013.71 1014.06 1014.39 1014.72 1015.02 1015.30 1015.55 1015.77 1015.97 1016.14 1016.29 1016.43 1016.55 1016.67 1016.78 1016.89 1016.98 1017.05 1017.11 1017.16 1017.18 1017.18 1017.16 1017.13 1017.07 1017.00 1016.89 1016.76 1016.60 1016.40 1016.17 1015.91 1015.62 1015.31 1014.99
1010.74 1011.05 1011.36 1011.67 1011.98 1012.30 1012.61 1012.93 1013.24 1013.55 1013.85 1014.14 1014.42 1014.67 1014.90 1015.11 1015.30 1015.47 1015.62 1015.76 1015.89 1016.00 1016.11 1016.20 1016.28 1016.35 1016.41 1016.45 1016.48 1016.49 1016.50 1016.50 1016.48 1016.44 1016.38 1016.29 1016.17 1016.00 1015.80 1015.55 1015.27 1014.96 1014.62
1010.85 1011.10 1011.36 1011.62 1011.88 1012.14 1012.39 1012.65 1012.90 1013.15 1013.40 1013.64 1013.87 1014.09 1014.30 1014.49 1014.67 1014.84 1014.99 1015.12 1015.24 1015.34 1015.43 1015.50 1015.55 1015.60 1015.63 1015.65 1015.67 1015.69 1015.71 1015.72 1015.73 1015.72 1015.69 1015.64 1015.55 1015.43 1015.26 1015.05 1014.80 1014.51 1014.19
1011.25 1011.44 1011.63 1011.83 1012.02 1012.20 1012.38 1012.56 1012.73 1012.91 1013.09 1013.27 1013.45 1013.63 1013.81 1013.99 1014.15 1014.31 1014.44 1014.56 1014.66 1014.73 1014.78 1014.81 1014.82 1014.82 1014.81 1014.80 1014.79 1014.79 1014.80 1014.81 1014.82 1014.82 1014.81 1014.77 1014.71 1014.62 1014.49 1014.32 1014.12 1013.89 1013.62
1011.88 1012.01 1012.14 1012.26 1012.37 1012.47 1012.56 1012.65 1012.74 1012.83 1012.94 1013.05 1013.18 1013.33 1013.48 1013.63 1013.78 1013.91 1014.03 1014.12 1014.18 1014.20 1014.20 1014.17 1014.11 1014.05 1013.98 1013.91 1013.85 1013.81 1013.78 1013.76 1013.75 1013.74 1013.72 1013.69 1013.63 1013.56 1013.47 1013.35 1013.21 1013.05 1012.87
1012.65 1012.72 1012.78 1012.84 1012.87 1012.89 1012.89 1012.89 1012.89 1012.91 1012.94 1013.00 1013.08 1013.18 1013.30 1013.43 1013.55 1013.66 1013.74 1013.79 1013.79 1013.76 1013.68 1013.56 1013.43 1013.28 1013.13 1012.98 1012.86 1012.75 1012.67 1012.60 1012.55 1012.50 1012.45 1012.40 1012.34 1012.28 1012.21 1012.14 1012.07 1011.99 1011.91
1013.44 1013.47 1013.48 1013.47 1013.43 1013.37 1013.30 1013.22 1013.14 1013.09 1013.06 1013.06 1013.10 1013.17 1013.26 1013.36 1013.45 1013.53 1013.56 1013.55 1013.48 1013.36 1013.19 1012.98 1012.74 1012.49 1012.24 1012.01 1011.79 1011.61 1011.46 1011.33 1011.22 1011.13 1011.04 1010.96 1010.89 1010.83 1010.78 1010.75 1010.75 1010.76 1010.77
1014.15 1014.15 1014.12 1014.06 1013.96 1013.84 1013.69 1013.55 1013.41 1013.30 1013.22 1013.18 1013.18 1013.22 1013.28 1013.35 1013.41 1013.43 1013.41 1013.32 1013.17 1012.95 1012.67 1012.35 1011.99 1011.63 1011.28 1010.94 1010.65 1010.39 1010.16 1009.97 1009.81 1009.67 1009.54 1009.44 1009.35 1009.29 1009.27 1009.28 1009.33 1009.41 1009.52
1014.72 1014.69 1014.63 1014.53 1014.38 1014.20 1014.01 1013.80 1013.62 1013.46 1013.34 1013.27 1013.25 1013.26 1013.29 1013.32 1013.33 1013.30 1013.20 1013.03 1012.78 1012.45 1012.06 1011.61 1011.14 1010.66 1010.20 1009.78 1009.39 1009.06 1008.78 1008.54 1008.34 1008.17 1008.03 1007.91 1007.83 1007.78 1007.77 1007.82 1007.91 1008.05 1008.24
1015.10 1015.06 1014.97 1014.83 1014.64 1014.42 1014.18 1013.93 1013.71 1013.52 1013.37 1013.27 1013.22 1013.20 1013.19 1013.18 1013.13 1013.03 1012.86 1012.59 1012.24 1011.79 1011.28 1010.72 1010.13 1009.55 1008.99 1008.49 1008.04 1007.66 1007.34 1007.08 1006.87 1006.69 1006.56 1006.45 1006.39 1006.36 1006.38 1006.46 1006.59 1006.78 1007.00
1015.30 1015.24 1015.12 1014.95 1014.72 1014.47 1014.19 1013.92 1013.66 1013.44 1013.27 1013.14 1013.05 1013.00 1012.95 1012.88 1012.77 1012.59 1012.33 1011.96 1011.50 1010.95 1010.33 1009.66 1008.98 1008.31 1007.68 1007.11 1006.62 1006.22 1005.89 1005.64 1005.44 1005.30 1005.20 1005.14 1005.11 1005.12 1005.18 1005.29 1005.44 1005.64 1005.88
1015.37 1015.28 1015.13 1014.93 1014.67 1014.38 1014.08 1013.78 1013.50 1013.25 1013.05 1012.89 1012.76 1012.66 1012.55 1012.42 1012.23 1011.97 1011.62 1011.16 1010.60 1009.95 1009.24 1008.49 1007.73 1007.00 1006.32 1005.73 1005.23 1004.83 1004.52 1004.30 1004.15 1004.06 1004.02 1004.01 1004.04 1004.10 1004.20 1004.32 1004.49 1004.69 1004.91
1015.33 1015.22 1015.04 1014.81 1014.54 1014.23 1013.90 1013.58 1013.28 1013.01 1012.78 1012.58 1012.40 1012.24 1012.06 1011.85 1011.58 1011.23 1010.79 1010.24 1009.60 1008.88 1008.10 1007.30 1006.50 1005.74 1005.05 1004.45 1003.97 1003.59 1003.32 1003.15 1003.06 1003.04 1003.06 1003.12 1003.20 1003.31 1003.43 1003.57 1003.73 1003.91 1004.09
1015.24 1015.10 1014.91 1014.67 1014.38 1014.06 1013.73 1013.40 1013.08 1012.79 1012.52 1012.28 1012.05 1011.82 1011.57 1011.27 1010.92 1010.48 1009.95 1009.34 1008.63 1007.86 1007.04 1006.22 1005.41 1004.65 1003.98 1003.41 1002.96 1002.62 1002.40 1002.29 1002.25 1002.29 1002.37 1002.48 1002.60 1002.73 1002.87 1003.00 1003.13 1003.27 1003.39
1015.13 1014.98 1014.79 1014.54 1014.26 1013.95 1013.62 1013.29 1012.97 1012.66 1012.37 1012.08 1011.79 1011.49 1011.16 1010.78 1010.33 1009.82 1009.22 1008.55 1007.80 1007.01 1006.19 1005.37 1004.58 1003.86 1003.22 1002.70 1002.29 1002.00 1001.83 1001.76 1001.76 1001.83 1001.94 1002.08 1002.21 1002.35 1002.46 1002.57 1002.66 1002.73 1002.78
1015.03 1014.89 1014.71 1014.48 1014.22 1013.93 1013.63 1013.32 1013.01 1012.70 1012.38 1012.05 1011.70 1011.33 1010.92 1010.45 1009.93 1009.34 1008.69 1007.97 1007.21 1006.42 1005.62 1004.84 1004.10 1003.43 1002.85 1002.38 1002.02 1001.77 1001.63 1001.58 1001.60 1001.67 1001.78 1001.89 1002.01 1002.10 1002.18 1002.22 1002.24 1002.24 1002.21
1014.98 1014.86 1014.70 1014.51 1014.29 1014.05 1013.79 1013.51 1013.21 1012.90 1012.57 1012.21 1011.81 1011.37 1010.88 1010.35 1009.75 1009.10 1008.41 1007.67 1006.91 1006.14 1005.38 1004.65 1003.98 1003.38 1002.86 1002.44 1002.13 1001.91 1001.77 1001.72 1001.72 1001.76 1001.82 1001.88 1001.93 1001.95 1001.95 1001.92 1001.86 1001.77 1001.65
1014.99 1014.90 1014.78 1014.64 1014.47 1014.28 1014.07 1013.84 1013.57 1013.27 1012.93 1012.54 1012.10 1011.61 1011.06 1010.45 1009.80 1009.11 1008.38 1007.64 1006.89 1006.15 1005.44 1004.78 1004.18 1003.64 1003.19 1002.82 1002.53 1002.32 1002.18 1002.09 1002.03 1002.00 1001.98 1001.95 1001.91 1001.84 1001.74 1001.62 1001.46 1001.29 1001.09
1015.11 1015.05 1014.97 1014.87 1014.76 1014.62 1014.46 1014.27 1014.03 1013.75 1013.40 1012.99 1012.52 1011.98 1011.37 1010.72 1010.02 1009.29 1008.54 1007.80 1007.07 1006.37 1005.72 1005.12 1004.58 1004.11 1003.71 1003.37 1003.10 1002.88 1002.70 1002.55 1002.42 1002.30 1002.18 1002.04 1001.89 1001.71 1001.51 1001.29 1001.04 1000.79 1000.53
1015.35 1015.31 1015.26 1015.20 1015.13 1015.03 1014.91 1014.75 1014.54 1014.26 1013.91 1013.49 1012.98 1012.40 1011.76 1011.06 1010.33 1009.57 1008.81 1008.08 1007.37 1006.71 1006.10 1005.55 1005.07 1004.64 1004.27 1003.96 1003.68 1003.43 1003.21 1002.99 1002.77 1002.55 1002.32 1002.07 1001.80 1001.51 1001.21 1000.90 1000.58 1000.27 999.96
1015.71 1015.68 1015.65 1015.60 1015.55 1015.47 1015.37 1015.22 1015.02 1014.74 1014.39 1013.95 1013.41 1012.80 1012.13 1011.40 1010.64 1009.87 1009.11 1008.37 1007.69 1007.05 1006.48 1005.97 1005.52 1005.12 1004.77 1004.45 1004.15 1003.87 1003.58 1003.29 1002.98 1002.66 1002.32 1001.96 1001.60 1001.22 1000.84 1000.46 1000.08 999.72 999.38
Thickness
5739 5736 5734 5732 5729 5726 5723 5722 5719 5717 5714 5711 5708 5705 5702 5699 5696 5692 5691 5690 5686 5685 5683 5682 5679 5678 5678 5678 5676 5673 5671 5669 5665 5668 5671 5670 5665 5662 5664 5663 5663 5663 5665
5741 5738 5734 5732 5730 5727 5724 5722 5719 5716 5713 5710 5706 5703 5701 5698 5695 5691 5688 5687 5685 5682 5681 5679 5677 5676 5673 5671 5670 5669 5667 5665 5661 5660 5662 5663 5662 5660 5658 5657 5659 5661 5660
5743 5739 5735 5733 5730 5728 5726 5722 5719 5715 5711 5709 5705 5702 5699 5696 5693 5690 5687 5684 5682 5680 5678 5676 5674 5672 5669 5668 5665 5664 5664 5663 5659 5657 5657 5658 5657 5656 5654 5654 5655 5653 5654
5744 5740 5736 5734 5732 5729 5726 5722 5718 5714 5710 5707 5704 5701 5697 5694 5691 5688 5685 5682 5679 5677 5675 5673 5671 5669 5666 5663 5661 5659 5657 5656 5655 5653 5653 5654 5653 5652 5649 5648 5650 5652 5650
5742 5738 5736 5734 5731 5727 5723 5720 5716 5712 5709 5706 5702 5699 5696 5693 5690 5687 5683 5680 5677 5674 5672 5671 5669 5667 5664 5660 5659 5658 5654 5651 5651 5650 5650 5649 5648 5646 5645 5646 5644 5644 5645
5738 5735 5734 5731 5727 5724 5720 5717 5713 5709 5705 5702 5699 5696 5693 5692 5689 5682 5678 5677 5675 5672 5670 5668 5667 5663 5660 5654 5652 5649 5646 5645 5645 5644 5645 5643 5641 5640 5638 5637 5636 5636 5636
5732 5729 5727 5725 5721 5718 5715 5711 5707 5703 5700 5697 5694 5692 5690 5688 5682 5676 5671 5669 5670 5669 5667 5665 5664 5665 5659 5656 5650 5644 5641 5637 5635 5635 5637 5637 5636 5634 5630 5630 5628 5627 5627
5722 5720 5719 5716 5713 5710 5706 5703 5700 5697 5694 5692 5689 5687 5684 5683 5677 5671 5666 5662 5664 5665 5663 5661 5658 5657 5656 5652 5648 5646 5644 5641 5635 5629 5630 5632 5630 5627 5624 5621 5620 5619 5620
5710 5708 5707 5705 5702 5699 5696 5693 5690 5688 5685 5684 5683 5681 5678 5676 5671 5665 5658 5658 5659 5660 5659 5657 5654 5652 5649 5643 5639 5639 5639 5639 5635 5631 5628 5626 5623 5619 5616 5614 5614 5613 5615
5696 5695 5694 5692 5690 5687 5684 5683 5681 5679 5677 5675 5674 5672 5669 5667 5663 5656 5649 5650 5651 5653 5653 5652 5649 5646 5643 5636 5631 5630 5631 5632 5630 5629 5623 5619 5616 5613 5608 5605 5607 5607 5609
5683 5681 5679 5678 5677 5674 5673 5671 5669 5668 5665 5663 5662 5661 5658 5655 5651 5646 5640 5638 5640 5641 5643 5644 5645 5640 5633 5628 5623 5623 5625 5623 5621 5620 5619 5618 5615 5612 5610 5606 5603 5602 5604
5668 5667 5666 5665 5664 5663 5660 5658 5656 5654 5653 5651 5649 5648 5647 5644 5640 5635 5629 5624 5622 5624 5627 5630 5631 5625 5620 5616 5613 5613 5611 5606 5608 5610 5612 5613 5612 5612 5611 5608 5604 5600 5598
5655 5653 5652 5651 5649 5648 5647 5646 5644 5642 5641 5640 5638 5636 5634 5632 5628 5622 5617 5612 5608 5607 5611 5612 5609 5606 5604 5604 5602 5600 5597 5596 5598 5600 5603 5606 5607 5606 5605 5602 5598 5594 5591
5643 5641 5640 5639 5638 5636 5633 5634 5631 5629 5626 5624 5622 5620 5618 5616 5613 5609 5605 5601 5597 5595 5596 5595 5593 5592 5590 5590 5591 5590 5589 5590 5591 5592 5595 5598 5598 5597 5595 5594 5591 5589 5585
5631 5630 5630 5629 5627 5622 5621 5618 5615 5612 5607 5602 5602 5600 5598 5597 5592 5580 5576 5578 5577 5575 5571 5574 5578 5581 5583 5584 5583 5584 5584 5582 5581 5582 5583 5585 5586 5586 5586 5587 5584 5582 5580
5620 5619 5619 5617 5614 5612 5609 5608 5603 5597 5592 5586 5580 5575 5576 5571 5565 5561 5556 5553 5550 5546 5546 5557 5563 5565 5568 5569 5570 5571 5572 5572 5572 5572 5572 5573 5574 5576 5577 5577 5577 5574 5574
5605 5604 5604 5602 5600 5597 5595 5592 5590 5587 5580 5574 5567 5561 5555 5550 5545 5541 5538 5536 5534 5529 5534 5543 5547 5550 5552 5553 5554 5556 5558 5560 5560 5560 5561 5562 5563 5564 5565 5566 5566 5566 5566
5593 5592 5588 5586 5584 5582 5579 5576 5573 5570 5566 5562 5556 5548 5541 5535 5530 5526 5522 5520 5528 5528 5529 5531 5533 5534 5535 5536 5539 5542 5544 5546 5547 5548 5550 5551 5552 5552 5553 5555 5557 5557 5559
5581 5578 5573 5570 5569 5566 5562 5559 5555 5550 5546 5542 5539 5534 5527 5523 5518 5515 5510 5511 5514 5515 5515 5515 5515 5516 5518 5521 5523 5526 5528 5530 5533 5536 5538 5540 5542 5543 5545 5547 5549 5549 5549
5567 5560 5555 5554 5554 5550 5545 5541 5537 5532 5528 5524 5520 5516 5512 5508 5508 5506 5502 5499 5498 5498 5498 5499 5500 5501 5504 5506 5509 5512 5515 5519 5523 5526 5529 5532 5533 5535 5537 5540 5542 5544 5546
5553 5550 5541 5541 5537 5532 5527 5523 5519 5514 5510 5507 5503 5499 5489 5491 5493 5492 5489 5487 5485 5485 5485 5487 5488 5491 5493 5496 5499 5503 5507 5511 5514 5518 5523 5525 5527 5529 5532 5534 5536 5538 5541
5537 5534 5528 5524 5518 5514 5508 5505 5501 5498 5495 5492 5490 5487 5481 5480 5481 5479 5478 5477 5476 5476 5476 5477 5480 5483 5486 5488 5492 5496 5500 5504 5509 5512 5516 5520 5522 5525 5528 5530 5532 5534 5535
5520 5516 5512 5507 5502 5496 5494 5492 5488 5485 5482 5479 5476 5475 5473 5471 5470 5469 5469 5469 5469 5469 5470 5472 5474 5477 5479 5482 5485 5489 5494 5500 5504 5508 5512 5516 5520 5522 5524 5525 5527 5528 5530
5504 5500 5495 5492 5488 5484 5481 5478 5475 5472 5469 5467 5465 5463 5462 5461 5461 5462 5462 5463 5463 5464 5466 5468 5470 5472 5475 5478 5481 5485 5489 5493 5497 5502 5507 5511 5515 5518 5519 5520 5522 5523 5525
5489 5484 5480 5476 5472 5469 5466 5464 5461 5459 5457 5456 5455 5454 5454 5453 5454 5455 5456 5457 5459 5461 5462 5465 5467 5470 5473 5476 5479 5481 5483 5486 5489 5493 5499 5505 5510 5513 5514 5516 5518 5519 5521
5474 5469 5465 5461 5458 5455 5453 5451 5449 5447 5446 5446 5446 5446 5446 5447 5448 5450 5452 5453 5455 5457 5460 5463 5466 5468 5471 5474 5477 5478 5479 5482 5484 5487 5491 5498 5504 5508 5510 5511 5513 5514 5516